Regional Weather Roundup
Issued by NWS

Home | Current Version | Previous Version | Text Only | Print | Product List | Glossary Off
Versions: 1 2 3 4 5 6 7 8 9 10 11 12 13 14 15 16 17 18 19 20 21 22 23 24 25 26 27 28 29 30 31 32 33 34 35 36 37 38 39 40 41 42 43 44 45 46 47 48 49 50

000
ASUS43 KMKX 272321
RWRWI

WISCONSIN REGIONAL WEATHER ROUNDUP
NATIONAL WEATHER SERVICE MILWAUKEE/SULLIVAN WI
600 PM CDT SAT AUG 27 2016

NOTE: "FAIR" INDICATES FEW OR NO CLOUDS BELOW 12,000 FEET WITH NO
SIGNIFICANT WEATHER AND/OR OBSTRUCTIONS TO VISIBILITY.

WIZ001-002-006>008-014>016-023>028-280000-
NORTHWEST WISCONSIN

CITY           SKY/WX    TMP DP  RH WIND       PRES   REMARKS
SUPERIOR ARPT  CLOUDY    65  61  85 E3        30.01S
ASHLAND        CLOUDY    64  62  93 NE5       30.03S
HAYWARD        LGT RAIN  63  60  90 NE5       30.02F
SIREN          DRIZZLE   62  61  95 CALM      30.02R
CUMBERLAND     CLOUDY    61  61 100 SE5       30.02S FOG
RICE LAKE      CLOUDY    63  61  92 E3        30.03S
CHETEK         NOT AVBL
LADYSMITH      CLOUDY    64  62  91 S3        30.04F
EAU CLAIRE     CLOUDY    66  63  90 S5        30.01S
MENOMONIE      CLOUDY    66  64  92 SE5       30.01S
NEW RICHMOND   CLOUDY    64  62  93 S6        30.02R
OSCEOLA        CLOUDY    65  62  89 S5        30.04R
$$

WIZ003>005-009-010-017-018-280000-
NORTH CENTRAL WISCONSIN

CITY           SKY/WX    TMP DP  RH WIND       PRES   REMARKS
MANITOWISH WTR NOT AVBL
ARBOR VITAE    CLOUDY    67  60  77 SE6       30.04S
WOODRUFF       CLOUDY    67  60  77 SE6       30.04S
RHINELANDER    CLOUDY    66  60  81 SE7       30.05S
EAGLE RIVER    CLOUDY    65  57  74 E6        30.04F
LAND O LAKES   CLOUDY    66  57  72 SE6       30.06S
PHILLIPS       DRIZZLE   64  61  92 CALM      30.04R
TOMAHAWK       CLOUDY    64  59  81 SE3       30.04F
MEDFORD        CLOUDY    63  63 100 S7        30.03S
MERRILL        CLOUDY    64  62  90 SE9       30.05S
$$

WIZ029-030-035-036-043>047-280000-
CENTRAL WISCONSIN

CITY           SKY/WX    TMP DP  RH WIND       PRES   REMARKS
WAUSAU         CLOUDY    64  60  87 SE7       30.03S
MOSINEE        CLOUDY    63  63 100 E3        30.05S
MARSHFIELD     CLOUDY    65  61  87 SE7       30.04R
STEVENS POINT  CLOUDY    63  60  92 SE3       30.05R
WAUPACA        CLOUDY    67  66  96 CALM      30.04R
WAUTOMA        CLOUDY    66  63  90 E3        30.04R
WISC RAPIDS    CLOUDY    66  63  90 E3        30.05R
CAMP DOUGLAS   CLOUDY    66  64  93 S3        30.04R
$$

WIZ011>013-019>022-031-037>040-048>050-280000-
NORTHEAST WISCONSIN

CITY           SKY/WX    TMP DP  RH WIND       PRES   REMARKS
ANTIGO         CLOUDY    63  60  91 CALM      30.06S
SHAWANO        CLOUDY    67  62  85 CALM      30.04S
OCONTO         NOT AVBL
STURGEON BAY   RAIN      63  63 100 NE3       30.05R FOG
GREEN BAY      CLOUDY    64  64 100 NE6       30.04R FOG
MANITOWOC      CLOUDY    65  63  93 MISG      30.03R
APPLETON       CLOUDY    64  64 100 VRB5      30.02S FOG
CLINTONVILLE   CLOUDY    64  61  88 CALM      30.04S
OSHKOSH        CLOUDY    66  64  93 N3        30.03R
$$

WIZ032>034-041-042-053>061-280000-
SOUTHWEST WISCONSIN

CITY           SKY/WX    TMP DP  RH WIND       PRES   REMARKS
LA CROSSE      CLOUDY    71  65  81 SE6       30.01R
SPARTA         CLOUDY    66  64  91 CALM      30.04R
VIROQUA        CLOUDY    67  67 100 CALM      30.05R
BOSCOBEL       CLOUDY    72  67  84 E3        30.03R
PRAIRIE DU CHI CLOUDY    73  65  76 CALM      30.02R
PLATTEVILLE    MOSUNNY   74  72  91 W5        30.03S
$$

WIZ056-057-062-063-064-067-068-280000-
SOUTH CENTRAL WISCONSIN

CITY           SKY/WX    TMP DP  RH WIND       PRES   REMARKS
REEDSBURG      NOT AVBL
BARABOO/DELLS  CLOUDY    65  63  93 CALM      30.04R
LONE ROCK      CLOUDY    71  66  84 CALM      30.03R
MINERAL POINT  PTSUNNY   73  70  88 W5        30.04S
MADISON        PTSUNNY   74  68  81 NW5       30.01S
MIDDLETON      CLOUDY    75  70  84 NW5       30.03R
WATERTOWN      CLOUDY    75  71  85 W6        30.01S
MONROE         CLOUDY    79  68  69 W7        30.02S HX  81
JANESVILLE     MOSUNNY   82  68  61 W8        30.00R HX  85
$$

WIZ051-052-058>065-066-070>072-280000-
SOUTHEAST WISCONSIN

CITY           SKY/WX    TMP DP  RH WIND       PRES   REMARKS
MILWAUKEE      CLOUDY    81  70  69 VRB6      30.00S HX  84
WAUKESHA       PTSUNNY   77  68  73 W6        30.02R
MILWAUKEE/TIMM PTSUNNY   77  66  69 CALM      30.01S
RACINE         CLOUDY    78  70  76 S6        30.02S HX  80
BURLINGTON     CLOUDY    77  70  78 CALM      30.00S
KENOSHA        CLOUDY    80  71  74 S6        30.00F HX  84
FOND DU LAC    CLOUDY    68  65  90 N5        30.03R
SHEBOYGAN      CLOUDY    69  66  90 E6        30.02R
WEST BEND      CLOUDY    73  68  83 CALM      30.02R
JUNEAU         CLOUDY    72  68  88 CALM      30.03S
$$

LSZ147-162-280000-
LAKE SUPERIOR

STATION/POSITION TIME  TEMP    WIND        PRES    WAVE
                       AIR SEA DIR/SP/G            HT/PER
                 (UTC) (F)     (DEG/KT/KT) (MB)    (FT/S)
W MID LAKE BUOY  2250   65 67   80/ 12/ 14 1016.5S   1
DEVILS ISLAND    2300   65      90/ 10/ 11 1016.5F
PORT WING        2200   68      40/  4/  5 1016.6S
SAXON HARBOR     2200   67      70/  5/  8 1016.3F
$$

LMZ867-665-643>646-280000-
LAKE MICHIGAN

STATION/POSITION TIME  TEMP    WIND        PRES    WAVE
                       AIR SEA DIR/SP/G            HT/PER
                 (UTC) (F)     (DEG/KT/KT) (MB)    (FT/S)
CHAMBERS ISLAND  2200   66      60/  5/  7 1017.3S
S GREEN BAY BUOY 2300   65 71   60/  8/ 10 1016.6
N MID LAKE BUOY  2250   65 70   60/  8/ 10 1016.4F   1/ 3
NORTHPORT PIER   2200   65      70/  7/  8 1017.3S
SISTER BAY       2237   67     110/  5/  7   N/A
KEWAUNEE LAKESHO 2200   62      30/  5/  9 1016.2F
SHEBOYGAN LAKESH 2300   61      10/  7/  8 1016.3R
PORT WASHINGTON  2200   66      70/  3/  4 1016.9R
ATWATER BUOY     2300   63     330/  4/  8   N/A
MILWAUKEE LAKESH 2310   69      50/  5/  5   N/A
S MID LAKE BUOY  2250   76 75  150/ 10/ 12 1015.7R   2/ 4
KENOSHA   LAKESH 2300   70     170/ 10/ 12 1015.6S
$$

TC  - TEMPERATURE IN CELSIUS
VSB - VISIBILITY IN STATUTE MILES
WCI - WIND CHILL INDEX
HX  - HEAT INDEX




USA.gov is the U.S. government's official web portal to all federal, state and local government web resources and services.